TimeCDT,TemperatureF,Dew PointF,Humidity,Sea Level PressureIn,VisibilityMPH,Wind Direction,Wind SpeedMPH,Gust SpeedMPH,PrecipitationIn,Events,Conditions,WindDirDegrees,DateUTC
12:15 AM,71.6,59.0,64,30.00,10.0,SE,5.8,-,N/A,,Clear,140,2013-05-27 05:15:00
12:35 AM,71.6,60.8,69,30.00,10.0,SE,4.6,-,N/A,,Clear,130,2013-05-27 05:35:00
12:55 AM,71.6,60.8,69,30.00,10.0,East,3.5,-,N/A,,Clear,100,2013-05-27 05:55:00
1:15 AM,69.8,60.8,73,30.00,10.0,ENE,4.6,-,N/A,,Clear,60,2013-05-27 06:15:00
1:35 AM,68.0,60.8,78,29.98,10.0,ENE,4.6,-,N/A,,Clear,70,2013-05-27 06:35:00
1:55 AM,69.8,60.8,73,29.98,10.0,NE,4.6,-,N/A,,Clear,50,2013-05-27 06:55:00
2:15 AM,69.8,60.8,73,29.97,10.0,ENE,5.8,-,N/A,,Clear,70,2013-05-27 07:15:00
2:35 AM,68.0,60.8,78,29.97,10.0,ENE,5.8,-,N/A,,Scattered Clouds,70,2013-05-27 07:35:00
2:55 AM,68.0,60.8,78,29.96,10.0,East,4.6,-,N/A,,Scattered Clouds,80,2013-05-27 07:55:00
3:15 AM,68.0,62.6,83,29.96,10.0,NE,4.6,-,N/A,,Mostly Cloudy,50,2013-05-27 08:15:00
3:35 AM,69.8,62.6,78,29.96,10.0,ENE,5.8,-,N/A,,Mostly Cloudy,60,2013-05-27 08:35:00
3:55 AM,69.8,62.6,78,29.96,10.0,ENE,5.8,-,N/A,,Scattered Clouds,70,2013-05-27 08:55:00
4:15 AM,69.8,64.4,83,29.95,10.0,East,5.8,-,N/A,,Scattered Clouds,80,2013-05-27 09:15:00
4:35 AM,69.8,64.4,83,29.95,10.0,ENE,4.6,-,N/A,,Scattered Clouds,60,2013-05-27 09:35:00
4:55 AM,68.0,64.4,88,29.95,10.0,NE,4.6,-,N/A,,Scattered Clouds,40,2013-05-27 09:55:00
5:15 AM,68.0,64.4,88,29.95,10.0,NE,5.8,-,N/A,,Clear,40,2013-05-27 10:15:00
5:35 AM,69.8,64.4,83,29.95,10.0,ENE,5.8,-,N/A,,Clear,60,2013-05-27 10:35:00
5:55 AM,69.8,64.4,83,29.95,10.0,ENE,5.8,-,N/A,,Clear,70,2013-05-27 10:55:00
6:15 AM,69.8,64.4,83,29.95,10.0,ENE,5.8,-,N/A,,Clear,60,2013-05-27 11:15:00
6:35 AM,69.8,66.2,88,29.96,10.0,East,6.9,-,N/A,,Clear,80,2013-05-27 11:35:00
6:55 AM,69.8,66.2,88,29.97,7.0,East,5.8,-,N/A,,Clear,80,2013-05-27 11:55:00
7:15 AM,69.8,66.2,88,29.97,10.0,East,4.6,-,N/A,,Clear,80,2013-05-27 12:15:00
7:35 AM,71.6,66.2,83,29.97,10.0,East,4.6,-,N/A,,Clear,100,2013-05-27 12:35:00
7:55 AM,71.6,68.0,88,29.97,10.0,East,3.5,-,N/A,,Unknown,100,2013-05-27 12:55:00
8:15 AM,73.4,68.0,83,29.97,10.0,SE,4.6,-,N/A,,Mostly Cloudy,140,2013-05-27 13:15:00
8:35 AM,73.4,68.0,83,29.97,10.0,SSE,4.6,-,N/A,,Mostly Cloudy,150,2013-05-27 13:35:00
8:55 AM,73.4,68.0,83,29.97,10.0,SSE,5.8,-,N/A,,Overcast,150,2013-05-27 13:55:00
9:15 AM,77.0,68.0,74,29.97,10.0,SSE,4.6,-,N/A,,Mostly Cloudy,160,2013-05-27 14:15:00
9:35 AM,77.0,68.0,74,29.96,10.0,South,12.7,17.3,N/A,,Mostly Cloudy,180,2013-05-27 14:35:00
9:55 AM,78.8,68.0,69,29.96,10.0,South,11.5,17.3,N/A,,Mostly Cloudy,170,2013-05-27 14:55:00
10:15 AM,78.8,68.0,69,29.95,10.0,South,15.0,20.7,N/A,,Scattered Clouds,170,2013-05-27 15:15:00
10:35 AM,78.8,64.4,61,29.95,10.0,South,13.8,19.6,N/A,,Scattered Clouds,190,2013-05-27 15:35:00
10:55 AM,80.6,66.2,61,29.94,10.0,South,13.8,19.6,N/A,,Scattered Clouds,180,2013-05-27 15:55:00
11:15 AM,80.6,64.4,58,29.95,10.0,South,15.0,20.7,N/A,,Scattered Clouds,190,2013-05-27 16:15:00
11:35 AM,80.6,64.4,58,29.95,10.0,South,13.8,17.3,N/A,,Clear,180,2013-05-27 16:35:00
11:55 AM,80.6,64.4,58,29.95,10.0,South,17.3,21.9,N/A,,Clear,170,2013-05-27 16:55:00
12:15 PM,80.6,64.4,58,29.95,10.0,SSW,15.0,19.6,N/A,,Clear,210,2013-05-27 17:15:00
12:35 PM,82.4,64.4,54,29.95,10.0,South,12.7,18.4,N/A,,Scattered Clouds,190,2013-05-27 17:35:00
12:55 PM,82.4,64.4,54,29.95,10.0,South,11.5,-,N/A,,Scattered Clouds,180,2013-05-27 17:55:00
1:15 PM,82.4,64.4,54,29.95,10.0,South,13.8,18.4,N/A,,Scattered Clouds,170,2013-05-27 18:15:00
1:35 PM,82.4,64.4,54,29.94,10.0,South,12.7,19.6,N/A,,Clear,190,2013-05-27 18:35:00
1:55 PM,82.4,64.4,54,29.93,10.0,South,13.8,21.9,N/A,,Clear,180,2013-05-27 18:55:00
2:15 PM,84.2,64.4,51,29.93,10.0,South,12.7,19.6,N/A,,Clear,190,2013-05-27 19:15:00
2:35 PM,82.4,64.4,54,29.92,10.0,SSE,9.2,19.6,N/A,,Scattered Clouds,160,2013-05-27 19:35:00
2:55 PM,84.2,64.4,51,29.91,10.0,South,10.4,19.6,N/A,,Scattered Clouds,180,2013-05-27 19:55:00
3:15 PM,84.2,64.4,51,29.90,10.0,South,10.4,18.4,N/A,,Scattered Clouds,170,2013-05-27 20:15:00
3:35 PM,84.2,64.4,51,29.90,10.0,South,13.8,19.6,N/A,,Clear,170,2013-05-27 20:35:00
3:55 PM,86.0,64.4,48,29.88,10.0,SSW,13.8,19.6,N/A,,Clear,200,2013-05-27 20:55:00
4:15 PM,86.0,66.2,51,29.87,10.0,South,12.7,20.7,N/A,,Scattered Clouds,180,2013-05-27 21:15:00
4:35 PM,84.2,64.4,51,29.87,10.0,South,16.1,24.2,N/A,,Scattered Clouds,180,2013-05-27 21:35:00
4:55 PM,86.0,64.4,48,29.86,10.0,South,16.1,25.3,N/A,,Clear,190,2013-05-27 21:55:00
5:15 PM,86.0,66.2,51,29.86,10.0,SSE,11.5,18.4,N/A,,Scattered Clouds,160,2013-05-27 22:15:00
5:35 PM,82.4,64.4,54,29.85,10.0,South,13.8,20.7,N/A,,Scattered Clouds,190,2013-05-27 22:35:00
5:55 PM,82.4,64.4,54,29.85,10.0,South,13.8,21.9,N/A,,Scattered Clouds,190,2013-05-27 22:55:00
6:15 PM,80.6,64.4,58,29.85,10.0,South,9.2,-,N/A,,Scattered Clouds,170,2013-05-27 23:15:00
6:35 PM,82.4,64.4,54,29.84,10.0,South,8.1,-,N/A,,Scattered Clouds,170,2013-05-27 23:35:00
6:55 PM,80.6,64.4,58,29.84,10.0,SSE,9.2,-,N/A,,Scattered Clouds,160,2013-05-27 23:55:00
7:15 PM,80.6,64.4,58,29.84,10.0,SSE,10.4,18.4,N/A,,Mostly Cloudy,160,2013-05-28 00:15:00
7:35 PM,80.6,64.4,58,29.83,10.0,SSE,9.2,19.6,N/A,,Mostly Cloudy,150,2013-05-28 00:35:00
7:55 PM,80.6,64.4,58,29.84,10.0,SE,8.1,-,N/A,,Mostly Cloudy,140,2013-05-28 00:55:00
8:15 PM,78.8,64.4,61,29.83,10.0,SSE,8.1,-,N/A,,Scattered Clouds,150,2013-05-28 01:15:00
8:35 PM,78.8,64.4,61,29.84,10.0,SSE,8.1,-,N/A,,Clear,160,2013-05-28 01:35:00
8:55 PM,78.8,64.4,61,29.86,10.0,SE,5.8,-,N/A,,Scattered Clouds,140,2013-05-28 01:55:00
9:15 PM,77.0,64.4,65,29.86,10.0,SSE,6.9,-,N/A,,Scattered Clouds,150,2013-05-28 02:15:00
9:35 PM,77.0,64.4,65,29.86,10.0,SE,9.2,-,N/A,,Scattered Clouds,140,2013-05-28 02:35:00
9:55 PM,77.0,64.4,65,29.87,10.0,SE,5.8,-,N/A,,Clear,140,2013-05-28 02:55:00
10:15 PM,77.0,64.4,65,29.87,10.0,SE,4.6,-,N/A,,Clear,130,2013-05-28 03:15:00
10:35 PM,75.2,64.4,69,29.87,10.0,SE,5.8,-,N/A,,Clear,140,2013-05-28 03:35:00
10:55 PM,75.2,64.4,69,29.85,10.0,SE,3.5,-,N/A,,Clear,130,2013-05-28 03:55:00
11:15 PM,77.0,64.4,65,29.86,10.0,SE,6.9,-,N/A,,Clear,140,2013-05-28 04:15:00
11:35 PM,75.2,64.4,69,29.86,10.0,SE,6.9,-,N/A,,Clear,140,2013-05-28 04:35:00
11:55 PM,75.2,64.4,69,29.85,10.0,SE,6.9,-,N/A,,Clear,140,2013-05-28 04:55:00